TimeEDT,TemperatureF,Dew PointF,Humidity,Sea Level PressureIn,VisibilityMPH,Wind Direction,Wind SpeedMPH,Gust SpeedMPH,PrecipitationIn,Events,Conditions,WindDirDegrees,DateUTC
12:53 AM,51.1,42.1,71,29.75,10.0,WSW,3.5,-,N/A,,Partly Cloudy,240,2013-11-02 04:53:00
1:53 AM,46.9,41.0,80,29.75,10.0,Calm,Calm,-,N/A,,Clear,0,2013-11-02 05:53:00
2:53 AM,45.0,39.9,82,29.76,10.0,Calm,Calm,-,N/A,,Partly Cloudy,0,2013-11-02 06:53:00
3:53 AM,46.0,41.0,83,29.76,10.0,Calm,Calm,-,N/A,,Scattered Clouds,0,2013-11-02 07:53:00
4:53 AM,45.0,39.9,82,29.76,10.0,Calm,Calm,-,N/A,,Scattered Clouds,0,2013-11-02 08:53:00
5:53 AM,45.0,41.0,86,29.78,10.0,Calm,Calm,-,N/A,,Partly Cloudy,0,2013-11-02 09:53:00
6:53 AM,41.0,39.0,93,29.81,9.0,Calm,Calm,-,N/A,,Partly Cloudy,0,2013-11-02 10:53:00
7:41 AM,41.0,37.9,89,29.85,1.0,Calm,Calm,-,N/A,Fog,Patches of Fog,0,2013-11-02 11:41:00
7:51 AM,39.2,37.4,93,29.84,0.2,Calm,Calm,-,N/A,Fog,Fog,0,2013-11-02 11:51:00
7:53 AM,39.0,37.0,93,29.81,0.2,Calm,Calm,-,N/A,Fog,Fog,0,2013-11-02 11:53:00
8:08 AM,41.0,37.9,89,29.85,5.0,Calm,Calm,-,N/A,Fog,Patches of Fog,0,2013-11-02 12:08:00
8:53 AM,45.0,41.0,86,29.83,10.0,Calm,Calm,-,N/A,,Partly Cloudy,0,2013-11-02 12:53:00
9:53 AM,52.0,44.1,74,29.85,10.0,West,5.8,-,N/A,,Mostly Cloudy,270,2013-11-02 13:53:00
10:53 AM,55.9,42.1,60,29.85,10.0,West,8.1,-,N/A,,Scattered Clouds,260,2013-11-02 14:53:00
11:53 AM,57.0,39.0,51,29.85,10.0,West,8.1,-,0.00,,Mostly Cloudy,270,2013-11-02 15:53:00
12:53 PM,60.1,34.0,38,29.84,10.0,West,10.4,-,N/A,,Scattered Clouds,270,2013-11-02 16:53:00
1:53 PM,61.0,32.0,34,29.83,10.0,WNW,12.7,-,N/A,,Mostly Cloudy,300,2013-11-02 17:53:00
2:53 PM,59.0,32.0,36,29.83,10.0,West,11.5,-,N/A,,Mostly Cloudy,280,2013-11-02 18:53:00
3:53 PM,61.0,30.9,32,29.82,10.0,WNW,16.1,28.8,N/A,,Mostly Cloudy,290,2013-11-02 19:53:00
4:10 PM,60.1,30.0,32,29.86,10.0,NW,19.6,23.0,N/A,,Mostly Cloudy,310,2013-11-02 20:10:00
4:53 PM,59.0,32.0,36,29.83,10.0,WNW,12.7,18.4,N/A,,Scattered Clouds,300,2013-11-02 20:53:00
5:14 PM,53.1,37.0,55,29.89,8.0,NW,13.8,24.2,0.01,Rain,Light Rain,310,2013-11-02 21:14:00
5:18 PM,52.0,39.0,61,29.90,5.0,West,19.6,28.8,0.02,Rain,Rain,280,2013-11-02 21:18:00
5:53 PM,54.0,37.9,55,29.86,10.0,WNW,5.8,-,0.04,,Scattered Clouds,290,2013-11-02 21:53:00
6:53 PM,50.0,37.9,63,29.90,10.0,West,6.9,-,N/A,,Scattered Clouds,270,2013-11-02 22:53:00
7:53 PM,50.0,36.0,59,29.94,10.0,WNW,6.9,-,N/A,,Scattered Clouds,290,2013-11-02 23:53:00
8:53 PM,50.0,34.0,54,29.96,10.0,NW,4.6,-,N/A,,Scattered Clouds,320,2013-11-03 00:53:00
9:53 PM,45.0,35.1,68,29.99,10.0,WNW,4.6,-,N/A,,Scattered Clouds,300,2013-11-03 01:53:00
10:53 PM,46.0,34.0,63,30.01,10.0,NW,5.8,-,N/A,,Scattered Clouds,310,2013-11-03 02:53:00
11:53 PM,43.0,35.1,74,30.04,10.0,West,4.6,-,N/A,,Partly Cloudy,260,2013-11-03 03:53:00